Weather History for Lincoln, NE

Change the Weather History Date:

Friday, January 4, 2002

  Actual Average Record
Temperature  
Mean Temperature 32 °F 24 °F  
Max Temperature 42 °F 35 °F 59 °F (1916)
Min Temperature 21 °F 14 °F -19 °F (1974)
Degree Days  
Heating Degree Days 34 41  
Month to date heating degree days 161  
Since 1 July heating degree days 2606  
Cooling Degree Days 0 0  
Month to date cooling degree days 0  
Year to date cooling degree days 0  
Moisture  
Dew Point 22 °F    
Average Humidity 70    
Maximum Humidity 89    
Minimum Humidity 47    
Precipitation  
Precipitation 0.00 in 0.02 in 0.34 in (2005)
Month to date precipitation 0.08  
Year to date precipitation 0.08  
Snow  
Snow 0.00 in 0.10 in - ()
Month to date snowfall 0.6  
Since 1 July snowfall 9.3  
Snow Depth -    
Sea Level Pressure  
Sea Level Pressure 30.01 in    
Wind  
Wind Speed 9 mph (SW)    
Max Wind Speed 15 mph    
Max Gust Speed -    
Visibility 9 miles    
Events      
T = Trace of Precipitation, MM = Missing Value Source: NWS Daily Summary

Daily Weather History Graph

Daily Weather History Graph

Search for Another Location

Airport:

Trip Planner

Search our weather history database for the weather conditions in past years. The results will help you decide how hot, cold, wet, or windy it might be!

Date:

Astronomy

Jan. 04, 2002 Rise Set
Actual Time 7:51 AM CST 5:12 PM CST
Civil Twilight 7:20 AM CST 5:43 PM CST
Nautical Twilight 6:46 AM CST 6:17 PM CST
Astronomical Twilight 6:13 AM CST 6:51 PM CST
Moon 11:32 PM CST (1/4) 11:44 AM CST (1/4)
Length of Visible Light 10h 22m
Length of Day
9h 20m
Waning Gibbous, 66% of the Moon is Illuminated
Jan 4
Waning Gibbous
Jan 5
Last Quarter
Jan 13
New
Jan 21
First Quarter
Jan 28
Full

Hourly Weather History & Observations

Time (CST) Temp. Windchill Dew Point Humidity Pressure Visibility Wind Dir Wind Speed Gust Speed Precip Events Conditions
12:54 AM 26.1 °F 16.2 °F 17.1 °F 69% 30.04 in 10.0 mi SSW 10.4 mph - N/A   Clear
1:54 AM 25.0 °F 16.3 °F 16.0 °F 69% 30.03 in 10.0 mi SSW 8.1 mph - N/A   Clear
2:54 AM 25.0 °F 15.5 °F 18.0 °F 75% 30.04 in 9.0 mi SSW 9.2 mph - N/A   Clear
3:54 AM 24.1 °F 14.4 °F 19.0 °F 81% 30.02 in 8.0 mi SSW 9.2 mph - N/A   Clear
4:54 AM 21.9 °F 11.0 °F 18.0 °F 85% 30.00 in 8.0 mi South 10.4 mph - N/A   Clear
5:54 AM 23.0 °F 11.7 °F 19.9 °F 88% 30.00 in 9.0 mi SSW 11.5 mph - N/A   Clear
6:54 AM 21.9 °F 12.5 °F 19.0 °F 89% 30.00 in 8.0 mi SSW 8.1 mph - N/A   Clear
7:54 AM 23.0 °F 11.7 °F 19.9 °F 88% 29.99 in 6.0 mi SSW 11.5 mph - N/A   Clear
8:54 AM 25.0 °F 13.6 °F 21.0 °F 85% 30.00 in 6.0 mi SW 12.7 mph - N/A   Clear
9:54 AM 28.9 °F 17.7 °F 23.0 °F 78% 30.02 in 7.0 mi SW 15.0 mph - N/A   Clear
10:54 AM 34.0 °F 24.6 °F 24.1 °F 67% 30.01 in 9.0 mi SSW 13.8 mph - N/A   Clear
11:54 AM 37.9 °F 30.9 °F 24.1 °F 57% 29.97 in 10.0 mi SW 10.4 mph - N/A   Clear
12:54 PM 41.0 °F 34.3 °F 24.1 °F 51% 29.95 in 10.0 mi SW 11.5 mph - N/A   Clear
1:54 PM 42.1 °F 36.6 °F 23.0 °F 47% 29.93 in 10.0 mi WSW 9.2 mph - N/A   Clear
2:54 PM 42.1 °F 37.1 °F 24.1 °F 49% 29.95 in 10.0 mi West 8.1 mph - N/A   Clear
3:54 PM 41.0 °F 38.0 °F 25.0 °F 53% 29.96 in 10.0 mi West 4.6 mph - N/A   Clear
4:54 PM 39.9 °F 37.8 °F 25.0 °F 55% 29.98 in 10.0 mi West 3.5 mph - N/A   Clear
5:54 PM 39.0 °F - 25.0 °F 57% 30.00 in 10.0 mi Calm Calm - N/A   Partly Cloudy
6:54 PM 35.1 °F 30.1 °F 24.1 °F 64% 30.02 in 10.0 mi SW 5.8 mph - N/A   Clear
7:54 PM 34.0 °F 29.8 °F 24.1 °F 67% 30.04 in 10.0 mi West 4.6 mph - N/A   Clear
8:54 PM 35.1 °F 32.2 °F 24.1 °F 64% 30.04 in 10.0 mi West 3.5 mph - N/A   Scattered Clouds
9:54 PM 35.1 °F 31.0 °F 25.0 °F 67% 30.04 in 10.0 mi WNW 4.6 mph - N/A   Mostly Cloudy
10:54 PM 32.0 °F 27.5 °F 26.1 °F 79% 30.05 in 10.0 mi North 4.6 mph - N/A   Mostly Cloudy
11:54 PM 30.9 °F 26.2 °F 27.0 °F 85% 30.04 in 10.0 mi NW 4.6 mph - N/A   Overcast